EW1079 Weather Reports


Display with metric or nautical units.
time (UTC)temp
F
wind
direction
speed
MPH
gust
MPH
rain 1hr
in
rain 24hr
in
rain mn
in
humidity
%
barometer
mb
20190117081958 40 231 10.0 17.0 0.00 0.00 0.00 84 1001.6
20190117081458 40 232 10.0 17.0 0.00 0.00 0.00 84 1001.5
20190117080954 40 233 9.0 16.0 0.00 0.00 0.00 84 1001.7
20190117080458 39 231 7.0 14.0 0.00 0.00 0.00 84 1001.6
20190117074959 39 234 9.0 17.0 0.00 0.00 0.00 84 1001.6
20190117074458 39 232 9.0 17.0 0.00 0.00 0.00 84 1001.5
20190117073954 39 230 8.0 15.0 0.00 0.00 0.00 84 1001.5
20190117073455 39 233 8.0 14.0 0.00 0.00 0.00 84 1001.4
20190117072454 39 231 8.0 15.0 0.00 0.00 0.00 82 1001.3
20190117071959 39 232 6.0 15.0 0.00 0.00 0.00 82 1001.2
20190117071455 39 236 5.0 12.0 0.00 0.00 0.00 82 1001.2
20190117070455 39 237 6.0 15.0 0.00 0.00 0.00 81 1001.0
20190117064458 39 230 9.0 18.0 0.00 0.00 0.00 80 1000.8
20190117063954 39 233 8.0 16.0 0.00 0.00 0.00 80 1000.8
20190117063455 39 237 9.0 14.0 0.00 0.00 0.00 80 1000.7
20190117062458 39 237 8.0 14.0 0.00 0.00 0.00 79 1000.6
20190117061955 39 233 8.0 16.0 0.00 0.00 0.00 79 1000.5
20190117060955 39 228 9.0 18.0 0.00 0.00 0.00 79 1000.4
20190117055954 39 225 10.0 18.0 0.00 0.00 0.00 79 1000.5
20190117054957 39 226 8.0 15.0 0.00 0.00 0.00 79 1000.6
20190117054455 39 225 9.0 17.0 0.00 0.00 0.00 79 1000.5
20190117053958 39 224 11.0 21.0 0.00 0.00 0.00 79 1000.4
20190117053458 39 223 10.0 21.0 0.00 0.00 0.00 79 1000.2
20190117052955 39 227 11.0 20.0 0.00 0.00 0.00 79 1000.1
20190117051955 39 231 10.0 18.0 0.00 0.00 0.00 78 1000.2
20190117051458 39 226 11.0 21.0 0.00 0.00 0.00 78 1000.2
20190117050955 39 226 11.0 21.0 0.00 0.00 0.00 78 1000.0
20190117050458 39 228 11.0 21.0 0.00 0.00 0.00 77 1000.0
20190117045954 39 231 11.0 21.0 0.00 0.00 0.00 77 1000.1
20190117045458 39 235 10.0 20.0 0.00 0.00 0.00 77 1000.0
20190117044954 39 232 10.0 18.0 0.00 0.00 0.00 77 1000.1
20190117044455 39 231 12.0 22.0 0.00 0.00 0.00 77 999.9
20190117042454 39 232 12.0 20.0 0.00 0.00 0.00 77 999.9
20190117040958 39 231 17.0 26.0 0.00 0.00 0.00 76 999.6
20190117040454 39 238 15.0 25.0 0.00 0.00 0.00 75 999.7
20190117035958 39 240 15.0 28.0 0.00 0.00 0.00 75 999.8
20190117035454 39 237 14.0 28.0 0.00 0.00 0.00 75 999.9
20190117034958 39 238 12.0 22.0 0.00 0.00 0.00 75 999.7
20190117032457 39 229 14.0 26.0 0.00 0.00 0.00 74 999.8
20190117030458 40 232 15.0 26.0 0.00 0.00 0.00 72 1000.1
20190117025954 40 233 16.0 26.0 0.00 0.00 0.00 71 1000.0
20190117025458 41 231 15.0 26.0 0.00 0.00 0.00 71 999.9
20190117024458 41 232 14.0 24.0 0.00 0.00 0.00 69 1000.0
20190117023954 42 233 14.0 24.0 0.00 0.00 0.00 70 1000.0
20190117023458 41 233 15.0 24.0 0.00 0.00 0.00 71 1000.3
20190117022458 39 234 14.0 25.0 0.00 0.00 0.00 74 1000.4
20190117021954 40 231 14.0 24.0 0.00 0.00 0.00 73 1000.5
20190117021457 39 230 15.0 28.0 0.00 0.00 0.00 74 1000.3
20190117020457 39 231 13.0 26.0 0.00 0.00 0.00 73 1000.7
20190117015455 39 223 11.0 23.0 0.00 0.00 0.00 76 1000.6
20190117014958 39 226 12.0 22.0 0.00 0.00 0.00 76 1000.6
20190117012958 39 224 11.0 23.0 0.00 0.00 0.00 77 1000.7
20190117011954 39 226 10.0 19.0 0.00 0.00 0.00 77 1000.9
20190117010457 38 226 8.0 16.0 0.00 0.00 0.00 78 1001.1
20190117005954 38 222 9.0 15.0 0.00 0.00 0.00 78 1001.1
20190117003457 39 229 7.0 22.0 0.00 0.01 0.00 78 1001.5
20190117002957 39 212 8.0 17.0 0.00 0.01 0.00 78 1001.5
20190117001958 39 216 11.0 21.0 0.00 0.01 0.00 78 1001.7
20190117001457 39 218 11.0 22.0 0.00 0.01 0.00 78 1001.7
20190117000958 39 219 11.0 24.0 0.00 0.02 0.00 77 1001.9
20190117000454 39 223 13.0 24.0 0.00 0.02 0.00 77 1001.9
20190116235453 40 220 10.0 21.0 0.00 0.02 0.00 76 1001.9
20190116234453 39 224 10.0 19.0 0.00 0.03 0.00 77 1001.8
20190116233954 39 221 10.0 19.0 0.00 0.03 0.00 78 1001.8
20190116232953 38 222 7.0 22.0 0.00 0.04 0.00 80 1001.8
20190116232455 38 206 8.0 16.0 0.00 0.04 0.00 81 1001.9
20190116231958 38 211 9.0 18.0 0.00 0.05 0.00 80 1002.1
20190116230954 39 213 10.0 21.0 0.00 0.06 0.00 80 1002.3
20190116230457 39 226 12.0 21.0 0.00 0.06 0.00 80 1002.4
20190116225959 39 233 11.0 21.0 0.00 0.06 0.00 80 1002.7
20190116225454 39 227 7.0 20.0 0.00 0.06 0.06 80 1002.8
20190116224957 38 212 4.0 17.0 0.00 0.07 0.06 81 1002.9
20190116223953 39 190 6.0 17.0 0.00 0.08 0.06 80 1002.9
20190116223453 39 218 5.0 15.0 0.00 0.09 0.06 80 1002.9
20190116222958 39 195 6.0 15.0 0.00 0.09 0.06 80 1003.0
20190116222457 39 205 8.0 19.0 0.00 0.09 0.06 80 1003.1
20190116220453 39 210 7.0 16.0 0.00 0.10 0.06 81 1003.5
20190116215958 39 207 7.0 16.0 0.00 0.10 0.06 81 1003.4
20190116215454 39 207 6.0 15.0 0.00 0.10 0.06 81 1003.3
20190116214458 39 184 8.0 16.0 0.00 0.10 0.06 81 1003.9
20190116212953 39 193 7.0 18.0 0.00 0.10 0.06 82 1003.9
20190116211958 39 202 8.0 18.0 0.00 0.10 0.06 81 1004.1
20190116210453 39 221 7.0 16.0 0.00 0.10 0.06 82 1004.1
20190116205957 39 215 6.0 14.0 0.00 0.10 0.06 82 1004.3
20190116205457 39 221 7.0 14.0 0.00 0.10 0.06 82 1004.1
20190116204958 39 221 8.0 17.0 0.00 0.10 0.06 82 1004.1
20190116202957 39 222 5.0 11.0 0.00 0.10 0.06 83 1004.4
20190116202458 39 238 6.0 14.0 0.00 0.10 0.06 82 1004.5
20190116201958 39 230 8.0 15.0 0.00 0.10 0.06 83 1004.5
20190116200958 39 211 8.0 18.0 0.00 0.10 0.06 83 1004.4
20190116200457 39 214 9.0 18.0 0.00 0.10 0.06 83 1004.3
20190116195458 39 216 9.0 20.0 0.00 0.10 0.06 82 1004.5
20190116192957 39 196 7.0 16.0 0.00 0.10 0.06 83 1004.7
20190116192453 39 204 7.0 16.0 0.00 0.10 0.06 83 1004.8
20190116191457 39 217 8.0 18.0 0.00 0.10 0.06 83 1005.2
20190116190954 39 216 9.0 18.0 0.00 0.10 0.06 83 1005.0
20190116190458 39 216 9.0 16.0 0.00 0.10 0.06 83 1005.0
20190116185453 38 225 7.0 14.0 0.00 0.10 0.06 84 1005.1
20190116184454 38 223 6.0 13.0 0.00 0.10 0.06 84 1005.4
20190116183457 38 229 6.0 13.0 0.00 0.10 0.06 84 1005.7
20190116182453 38 224 6.0 12.0 0.00 0.10 0.06 85 1005.8
20190116181957 39 226 7.0 17.0 0.00 0.10 0.06 85 1005.7
20190116181454 39 223 8.0 17.0 0.00 0.10 0.06 84 1005.9
20190116175953 39 225 9.0 16.0 0.00 0.10 0.06 84 1006.1
20190116174956 39 229 8.0 15.0 0.00 0.10 0.06 84 1006.2
20190116174457 39 230 9.0 15.0 0.00 0.10 0.06 84 1006.3
20190116173457 39 230 8.0 16.0 0.00 0.10 0.06 84 1006.3
20190116172958 39 228 8.0 17.0 0.00 0.10 0.06 84 1006.2
20190116172458 39 229 8.0 18.0 0.00 0.10 0.06 84 1006.3
20190116171458 39 228 8.0 15.0 0.00 0.10 0.06 85 1006.5
20190116165957 39 231 7.0 12.0 0.00 0.10 0.06 86 1006.7
20190116164953 39 227 8.0 15.0 0.00 0.11 0.06 86 1006.7
20190116164457 39 223 8.0 15.0 0.00 0.11 0.06 85 1006.6
20190116163953 40 223 8.0 15.0 0.00 0.11 0.06 85 1006.7
20190116163453 40 224 8.0 16.0 0.00 0.12 0.06 85 1006.8
20190116161958 40 223 9.0 14.0 0.00 0.13 0.06 85 1006.8
20190116160958 40 223 7.0 15.0 0.00 0.13 0.06 85 1007.0
20190116160457 40 224 9.0 16.0 0.00 0.13 0.06 85 1007.1
20190116155458 40 223 8.0 17.0 0.00 0.13 0.06 85 1007.2
20190116154953 40 224 9.0 15.0 0.00 0.14 0.06 85 1007.2
20190116153454 40 230 7.0 16.0 0.00 0.14 0.06 86 1007.2
20190116152954 40 228 7.0 13.0 0.00 0.14 0.06 86 1007.3
20190116152457 40 228 7.0 12.0 0.00 0.14 0.06 87 1007.3
20190116151957 40 230 6.0 12.0 0.00 0.14 0.06 87 1007.4
20190116150457 40 220 6.0 10.0 0.00 0.14 0.06 87 1007.4
20190116145457 40 227 5.0 11.0 0.00 0.15 0.06 88 1007.5
20190116144958 40 227 6.0 9.0 0.00 0.15 0.06 88 1007.6
20190116143953 40 236 6.0 12.0 0.00 0.15 0.06 89 1007.7
20190116143457 40 229 7.0 13.0 0.00 0.15 0.06 89 1007.7
20190116142956 40 229 7.0 13.0 0.00 0.16 0.06 89 1007.6
20190116142453 40 233 7.0 12.0 0.00 0.16 0.06 89 1007.7
20190116140957 40 230 8.0 13.0 0.00 0.16 0.06 88 1007.9
20190116135953 40 227 6.0 10.0 0.00 0.16 0.06 89 1007.8
20190116135457 40 223 6.0 13.0 0.00 0.16 0.06 89 1007.8
20190116134953 40 223 7.0 13.0 0.00 0.16 0.06 89 1007.7
20190116134457 40 228 7.0 13.0 0.00 0.16 0.06 88 1007.8
20190116133957 40 232 8.0 14.0 0.00 0.16 0.06 88 1007.9
20190116132957 41 231 9.0 15.0 0.00 0.16 0.06 88 1008.0
20190116131457 41 226 8.0 16.0 0.00 0.17 0.06 87 1007.9
20190116130953 41 226 9.0 16.0 0.00 0.17 0.06 87 1007.9
20190116130457 41 222 8.0 14.0 0.00 0.17 0.06 87 1008.1
20190116125954 41 225 7.0 14.0 0.00 0.17 0.06 87 1008.1
20190116124957 41 232 9.0 15.0 0.00 0.17 0.06 86 1008.3
20190116124453 41 234 9.0 15.0 0.00 0.17 0.06 86 1008.3
20190116123956 41 233 8.0 14.0 0.00 0.17 0.06 86 1008.3
20190116123458 41 228 8.0 15.0 0.00 0.17 0.06 86 1008.4
20190116122457 41 229 8.0 13.0 0.00 0.17 0.06 87 1008.4
20190116121956 41 228 8.0 11.0 0.00 0.17 0.06 87 1008.5
20190116121453 41 230 7.0 11.0 0.00 0.17 0.06 87 1008.6
20190116115953 41 231 8.0 12.0 0.00 0.17 0.06 86 1008.9
20190116115457 41 231 8.0 12.0 0.00 0.17 0.06 86 1008.9
20190116114457 41 235 8.0 16.0 0.00 0.17 0.06 86 1008.9
20190116112957 42 239 8.0 13.0 0.00 0.18 0.06 86 1009.1
20190116111956 42 241 8.0 14.0 0.00 0.18 0.06 86 1009.2
20190116111452 41 239 8.0 14.0 0.00 0.18 0.06 86 1009.2
20190116105958 42 243 8.0 14.0 0.00 0.18 0.06 86 1009.3
20190116103956 42 249 9.0 16.0 0.00 0.19 0.06 86 1009.5
20190116103453 42 245 8.0 16.0 0.00 0.19 0.06 87 1009.5
20190116102456 41 239 9.0 16.0 0.00 0.19 0.06 87 1009.5
20190116101956 41 238 8.0 16.0 0.00 0.19 0.06 87 1009.7
20190116101457 41 237 7.0 13.0 0.00 0.19 0.06 87 1009.7
20190116100953 41 243 7.0 13.0 0.00 0.19 0.06 88 1009.8
20190116095457 41 243 6.0 12.0 0.00 0.19 0.06 88 1010.0
20190116094953 41 245 5.0 11.0 0.00 0.19 0.06 88 1010.0
20190116094453 41 246 7.0 12.0 0.00 0.19 0.06 88 1010.0
20190116093456 41 247 7.0 12.0 0.00 0.19 0.06 88 1010.0
20190116090953 41 248 5.0 10.0 0.00 0.19 0.06 89 1010.0
20190116085452 40 248 5.0 10.0 0.00 0.19 0.06 89 1010.0
20190116084457 40 253 5.0 9.0 0.00 0.19 0.06 90 1010.0
20190116082956 40 249 7.0 15.0 0.00 0.19 0.06 90 1010.0